GFSFLT2_sfc_thetae_099.txt.gz
Theta_e
337 337 339 339 339 338 336 336 338 338 338 332 333 338 339 341 341 341 340 339 338 337 335 334 334 331 329 326 328 327 322 322
334 335 336 334 334 334 335 333 334 335 334 333 331 328 336 338 338 339 338 338 336 335 333 332 331 328 326 327 328 327 322 321
331 333 335 335 330 330 332 334 332 332 332 331 328 326 335 335 336 336 336 335 335 333 332 330 328 326 326 326 324 321 321 321
329 331 333 335 334 330 326 328 327 325 328 326 324 328 333 333 334 334 334 333 332 331 330 328 323 317 318 322 320 320 320 320
327 329 332 331 330 328 327 328 328 325 325 325 324 331 334 331 330 329 328 330 326 325 324 317 316 316 315 316 318 319 320 320
327 327 329 329 328 327 326 325 328 326 326 325 326 331 331 329 327 325 325 323 320 317 314 314 314 316 317 318 318 319 319 320
326 326 326 327 327 328 327 325 324 326 324 324 324 332 329 327 324 322 320 319 316 313 314 314 312 314 316 317 318 318 319 320
325 325 325 325 325 326 327 326 324 325 327 327 326 332 329 324 321 318 318 317 314 313 314 314 312 315 314 317 318 318 318 319
322 323 325 323 327 325 328 327 327 328 329 327 332 332 329 323 318 318 317 316 315 316 316 315 313 315 315 315 318 317 318 318
321 325 322 323 326 324 326 326 326 328 330 329 332 331 328 322 318 320 319 319 317 320 317 313 312 313 311 313 314 317 317 317
320 322 321 323 324 323 323 327 325 327 329 328 329 328 328 324 320 322 320 321 319 320 315 314 311 311 312 311 312 314 317 318
322 320 320 323 322 322 321 323 325 324 327 327 326 325 327 325 323 323 322 320 320 318 314 313 312 312 315 312 311 314 314 315
319 320 321 320 320 320 320 322 324 324 325 326 325 324 322 323 323 322 320 321 320 318 313 313 311 311 309 308 309 312 313 313
320 321 320 321 320 320 321 323 325 324 325 325 324 322 319 320 320 318 319 317 317 314 313 311 310 309 308 308 304 306 310 310
320 320 319 321 320 320 320 321 321 321 323 322 321 321 319 318 319 319 318 317 315 314 314 312 310 310 310 307 306 304 305 309
321 321 320 321 318 319 318 317 316 318 320 322 319 320 319 318 319 319 318 317 317 315 315 313 312 309 310 312 313 314 308 305
320 321 320 321 320 318 318 317 317 318 317 317 318 318 320 320 320 319 318 318 318 318 317 317 316 312 312 311 310 310 311 308
320 320 319 320 320 319 318 315 315 313 315 315 315 317 318 318 319 319 319 319 319 320 319 318 317 317 316 315 314 310 309 309
319 319 319 320 320 318 317 315 314 313 314 314 314 314 316 316 317 317 318 319 320 320 319 319 318 315 316 317 316 315 315 313
318 318 319 320 320 319 318 316 314 314 314 314 314 314 315 317 316 317 319 320 320 320 319 319 319 318 316 316 316 316 316 315

GFSFLT2_sfc_thetae_102.txt.gz
Theta_e
336 337 340 340 340 343 340 340 341 339 339 336 335 336 335 338 339 340 340 339 339 338 336 335 334 332 330 330 328 327 321 321
333 334 335 335 335 337 335 335 337 335 336 335 332 333 334 336 337 339 339 338 338 336 335 333 331 329 329 328 327 327 320 319
331 333 332 333 331 335 334 336 336 335 335 332 329 328 333 333 335 337 338 336 336 334 333 331 329 328 328 327 325 321 320 320
328 329 330 332 333 330 331 332 333 332 331 330 328 328 327 328 333 335 336 335 334 333 331 329 324 320 323 324 320 320 320 320
326 328 330 332 330 328 327 329 327 325 325 324 326 326 329 329 332 332 331 332 328 327 326 320 317 316 317 318 319 319 319 320
325 326 329 328 328 327 326 327 326 322 324 322 322 325 325 330 331 328 327 325 321 319 317 315 315 315 317 317 317 318 317 320
323 324 325 326 326 325 325 325 327 327 325 324 324 328 326 330 327 326 323 320 318 314 312 313 313 315 317 317 317 317 318 319
323 323 324 324 324 328 327 325 325 327 326 325 325 327 329 327 324 322 318 317 315 313 311 311 311 315 315 317 317 317 318 317
321 322 322 322 323 326 328 326 325 324 325 324 326 328 327 324 321 318 316 313 312 312 310 311 311 314 315 316 316 316 317 317
321 323 321 322 322 323 327 326 326 326 326 326 326 329 325 320 317 315 314 311 313 314 313 311 312 313 313 315 315 316 316 316
317 318 319 321 325 321 326 324 326 327 328 326 329 327 322 318 316 314 315 312 314 316 313 313 311 311 312 312 312 313 314 317
317 317 319 322 323 321 322 325 324 327 328 326 330 325 321 317 317 315 315 313 316 316 312 311 311 311 313 312 313 313 314 314
317 316 320 321 319 319 318 321 322 324 327 328 328 325 321 317 319 316 317 315 317 315 312 311 309 310 308 306 308 313 314 314
316 317 321 320 319 318 318 321 324 323 325 326 326 325 323 319 321 318 320 318 316 314 312 309 308 309 307 305 304 306 309 311
317 317 319 319 320 320 320 321 324 321 322 321 322 322 323 322 322 320 320 319 317 315 313 311 311 308 311 306 302 301 304 307
317 317 316 318 320 320 319 319 319 321 322 321 318 319 320 321 319 320 319 318 316 315 314 311 310 309 309 311 312 311 304 305
316 317 317 318 319 319 319 318 320 321 322 319 317 317 319 321 320 318 318 317 316 315 313 312 311 310 309 308 307 309 310 307
317 316 317 318 318 319 318 316 316 317 318 318 316 317 318 319 320 320 318 317 317 318 317 315 314 312 312 312 310 308 308 308
317 316 317 319 317 318 317 316 316 316 317 316 315 316 316 317 318 318 318 318 318 319 318 317 316 315 314 313 315 315 313 312
317 317 317 319 318 315 317 317 316 316 317 317 316 316 316 317 317 317 317 318 318 319 319 318 317 316 315 316 316 317 316 315

GFSFLT2_sfc_thetae_105.txt.gz
Theta_e
336 338 342 343 342 342 341 342 341 340 338 338 337 337 336 337 336 339 339 339 339 338 337 336 333 332 331 330 328 327 322 325
333 334 335 335 338 340 339 339 337 336 335 334 334 335 334 332 335 336 337 338 338 337 335 333 331 331 330 328 327 326 320 319
330 331 332 331 332 334 337 337 336 336 334 333 332 333 334 334 333 335 336 337 336 336 334 330 329 330 329 328 325 321 319 318
329 329 329 329 333 332 331 333 334 334 333 332 330 330 331 331 332 334 335 335 335 334 331 328 327 325 325 324 321 320 319 317
326 326 328 331 329 329 331 332 332 332 331 329 328 329 330 327 329 332 332 333 329 329 325 317 319 322 317 319 319 318 317 318
325 325 329 332 329 327 327 329 327 327 329 328 326 325 326 326 330 332 329 327 324 323 317 315 315 316 318 318 318 317 316 317
323 324 326 328 328 326 324 326 326 325 326 325 325 324 325 327 330 329 327 323 322 319 314 313 314 316 317 317 316 316 317 318
321 323 324 324 324 326 326 326 327 325 325 324 324 325 325 326 328 327 323 323 320 317 314 314 313 315 315 316 316 316 316 316
321 321 321 322 322 327 326 325 325 326 325 324 323 327 326 328 327 324 322 319 315 312 310 310 311 315 314 316 316 316 316 316
320 323 320 320 320 327 327 326 325 325 326 326 324 326 328 326 325 321 318 314 314 313 311 309 313 314 313 313 314 315 315 315
320 318 318 319 320 321 326 326 324 325 326 324 325 325 328 326 322 317 314 313 313 312 308 310 311 312 312 311 313 314 315 317
318 316 317 319 321 321 324 324 325 327 326 326 324 327 324 323 318 314 312 312 312 310 310 309 310 312 314 312 311 311 313 313
316 315 316 318 320 319 319 321 322 324 327 325 326 323 322 319 314 312 310 311 313 311 310 309 308 310 310 307 308 310 311 312
315 315 317 318 319 317 319 321 323 322 325 326 324 322 318 317 313 311 310 313 313 312 310 307 307 310 307 306 302 305 309 311
315 317 317 318 320 319 319 319 322 321 322 325 322 320 318 317 314 313 312 316 314 312 312 308 309 306 310 306 301 301 303 306
315 318 315 316 318 318 318 317 318 321 321 323 324 321 320 320 316 316 315 318 316 314 314 311 310 308 306 312 311 308 303 301
316 316 314 315 318 318 317 319 321 321 319 318 321 322 321 321 320 319 318 318 317 315 313 311 312 310 310 307 308 309 309 306
315 316 316 315 316 319 319 318 319 320 318 316 318 320 319 320 320 319 317 317 315 315 313 312 312 311 311 310 309 308 307 308
314 315 314 316 317 318 318 318 319 319 319 317 315 317 319 319 320 318 317 317 318 317 316 316 313 312 311 311 313 312 312 310
315 314 314 316 315 317 317 317 318 319 319 318 317 317 319 320 320 319 319 318 318 318 317 317 316 315 314 315 313 315 315 313

GFSFLT2_sfc_thetae_108.txt.gz
Theta_e
336 339 342 342 342 342 341 340 340 340 339 338 338 337 337 338 338 339 340 340 339 339 338 336 335 335 333 331 329 329 325 328
333 335 338 340 342 339 339 338 337 337 337 335 333 334 335 336 336 338 339 338 338 337 335 334 333 332 330 328 328 328 323 325
330 332 333 336 339 338 340 334 337 335 336 335 332 333 333 334 334 336 337 337 336 336 333 331 331 330 329 327 325 320 320 322
328 330 330 330 333 331 335 336 336 335 332 332 332 332 331 331 331 334 336 336 335 334 331 330 328 324 325 324 320 319 319 319
327 329 328 327 331 333 333 335 334 334 331 330 330 332 331 331 330 333 333 334 331 329 325 322 322 322 318 318 318 318 319 319
326 326 328 331 330 330 332 331 333 333 331 330 328 330 328 327 328 330 331 329 327 323 318 316 318 317 318 318 317 318 317 318
324 323 329 329 328 328 328 330 329 331 330 329 328 328 327 326 328 330 328 327 325 319 315 316 315 316 317 317 316 316 317 319
323 323 326 328 328 327 326 328 327 327 328 327 327 326 326 326 328 329 325 325 323 319 315 314 315 316 316 316 316 317 318 318
322 322 323 326 327 327 326 326 326 325 326 326 326 326 326 326 328 327 325 323 320 316 312 314 314 316 315 315 316 316 316 317
322 324 321 321 323 327 326 326 326 326 325 326 325 326 326 327 327 326 325 321 317 316 312 312 313 314 313 313 314 315 315 316
321 321 320 319 319 326 327 326 325 325 326 325 325 325 326 327 326 324 320 319 317 316 311 312 312 312 313 311 313 313 314 316
321 320 318 317 319 323 326 325 325 325 325 325 326 324 327 327 326 321 320 317 314 314 310 310 312 312 314 311 311 312 313 313
319 318 316 320 321 320 322 322 323 324 325 326 324 324 325 326 322 317 317 316 313 312 310 310 308 312 309 308 309 310 311 312
317 318 317 320 321 320 321 320 323 323 325 325 324 325 324 322 317 316 315 314 311 311 311 307 307 312 308 307 304 307 310 312
317 316 318 318 316 319 318 320 322 321 322 323 324 323 321 318 317 314 312 313 310 311 311 310 309 307 313 307 301 303 305 308
314 317 317 316 316 316 315 317 318 320 321 324 323 321 318 315 314 311 312 313 311 311 312 309 312 307 308 311 309 306 303 302
316 318 316 314 314 317 316 316 319 321 318 321 318 318 318 315 313 312 313 314 313 312 311 310 312 309 310 307 309 309 309 305
316 315 315 313 314 318 316 315 319 319 317 317 317 317 318 315 316 315 317 316 314 313 313 312 312 312 310 310 310 309 309 308
314 316 315 315 314 318 317 317 320 318 317 317 318 317 317 316 317 317 316 316 315 314 313 312 311 311 310 311 312 312 313 312
315 315 315 316 317 317 318 319 320 320 318 317 318 319 318 318 316 316 317 317 317 316 315 315 314 312 312 312 313 314 314 313

GFSFLT2_sfc_thetae_111.txt.gz
Theta_e
347 348 346 343 342 341 342 342 342 341 340 340 340 340 340 341 341 341 342 341 341 341 338 337 337 335 334 331 331 334 338 337
346 347 348 349 349 340 339 339 338 338 338 336 336 336 337 338 338 339 340 340 340 338 336 335 333 333 331 330 330 332 337 336
344 345 346 345 345 347 341 338 337 337 337 335 333 338 337 334 335 337 338 338 338 336 335 333 332 330 330 329 330 334 334 334
342 344 343 340 340 343 346 343 341 340 340 338 338 337 337 336 336 335 337 337 336 335 333 331 332 334 331 327 331 331 332 331
339 341 344 340 338 338 340 338 338 338 338 339 337 336 336 337 334 337 338 337 336 334 332 331 333 332 330 329 329 330 329 329
338 340 340 339 338 336 336 336 336 334 334 335 336 335 335 334 331 333 334 337 335 332 327 329 331 330 329 328 328 327 327 327
336 338 339 336 334 334 334 333 336 334 331 332 333 335 333 334 332 333 334 333 332 327 327 326 328 328 328 327 326 326 327 326
335 336 336 333 333 331 332 333 334 337 332 330 331 332 331 332 331 333 330 333 330 327 326 324 326 327 326 327 326 325 326 326
332 334 334 332 332 331 330 331 331 331 332 331 330 330 330 331 332 330 331 332 328 326 325 325 325 325 325 325 325 325 325 326
332 331 332 330 331 332 330 329 329 328 328 328 329 330 330 329 330 329 331 329 327 324 324 323 323 323 324 323 323 324 325 326
330 331 332 328 329 330 328 330 328 328 327 327 327 328 329 328 331 329 330 327 326 322 323 323 321 321 322 322 323 323 324 324
330 331 331 328 328 329 329 330 328 330 328 327 326 326 327 327 328 328 326 323 322 322 321 323 322 322 319 320 322 323 324 324
328 329 328 326 325 324 324 322 325 326 327 327 327 326 326 326 326 323 323 321 321 323 320 320 319 322 318 318 319 321 322 323
325 327 325 326 325 325 328 327 326 327 328 328 328 326 326 326 325 322 320 318 318 320 321 319 318 321 318 317 312 315 319 320
322 324 324 326 327 325 323 325 325 324 326 327 326 325 325 325 324 322 320 317 315 316 321 320 316 319 321 318 311 311 314 318
322 323 323 323 323 322 320 321 320 323 324 326 324 324 324 322 320 321 320 318 315 316 321 322 320 316 319 317 321 318 313 311
321 324 323 320 321 321 320 322 323 324 324 323 324 323 321 319 318 318 318 317 317 315 318 321 321 319 318 317 316 317 317 314
322 323 319 319 323 322 322 320 321 321 321 321 320 319 317 317 315 314 316 316 316 317 318 321 321 320 320 319 317 315 315 317
318 319 316 319 322 323 322 320 320 322 321 319 316 316 314 313 313 314 316 317 316 316 318 319 320 320 321 320 321 320 321 320
317 316 316 318 321 322 322 322 321 323 321 321 317 317 314 315 314 317 318 318 316 316 316 317 320 318 317 319 321 321 322 321

GFSFLT2_sfc_thetae_114.txt.gz
Theta_e
352 352 349 343 342 341 342 343 343 343 342 342 341 340 340 342 341 343 343 343 343 342 340 338 337 336 335 334 334 336 339 337
350 352 352 351 350 339 340 340 340 340 340 339 336 336 339 340 340 341 342 342 342 340 338 336 335 334 332 332 333 335 339 338
350 350 351 351 350 347 341 340 338 338 339 337 335 344 344 343 339 339 340 340 340 338 336 334 331 331 331 331 332 339 338 337
348 350 350 348 345 348 349 350 349 347 346 344 344 344 342 338 335 337 338 338 337 336 334 332 333 337 336 332 339 337 337 336
346 348 350 345 344 345 349 350 349 348 347 345 343 342 339 335 337 339 343 337 339 337 336 338 339 338 336 337 334 335 333 332
345 347 348 345 344 343 347 344 346 343 344 344 341 341 340 337 336 337 339 337 339 339 339 339 338 336 336 334 333 332 331 330
344 346 347 345 341 342 343 342 341 340 340 341 340 341 339 337 336 335 337 340 333 336 337 336 334 334 334 332 332 331 330 328
342 344 346 344 341 341 340 342 342 338 338 341 341 342 337 339 337 335 336 336 334 333 329 332 331 332 332 331 331 330 328 328
339 342 344 343 342 341 339 341 342 337 336 339 338 337 336 337 337 338 334 337 335 330 328 331 329 331 330 331 331 329 327 327
337 338 342 341 340 340 339 339 339 338 336 335 336 335 334 334 335 337 337 331 331 327 327 329 329 329 328 329 329 328 327 326
334 339 341 340 341 338 336 337 336 335 334 335 337 335 334 333 331 336 335 331 332 328 326 330 327 328 327 328 328 327 327 324
334 337 339 338 336 334 335 335 334 333 333 332 333 332 332 331 329 330 331 329 330 328 328 329 328 327 324 325 327 326 327 324
332 335 338 332 331 329 331 331 330 332 334 330 329 330 329 329 328 328 329 327 330 329 330 328 326 328 324 323 323 325 325 324
332 334 336 330 331 333 332 328 329 329 331 331 331 328 327 327 327 327 326 327 326 325 328 327 326 328 322 321 315 318 323 324
331 333 336 334 336 332 333 332 330 330 330 330 329 328 327 327 326 325 324 324 322 322 327 327 323 326 327 321 314 313 318 322
331 333 333 333 336 332 331 328 325 328 330 331 329 332 331 327 326 324 323 323 322 321 323 324 326 322 325 323 323 321 315 314
327 329 330 332 335 333 330 327 328 328 330 330 331 330 328 328 325 324 322 321 320 319 321 322 324 326 324 322 323 322 323 317
324 327 326 327 329 331 329 327 325 326 327 328 328 327 326 324 322 323 322 320 318 320 320 322 327 327 325 323 321 319 319 317
322 325 323 323 325 327 328 327 324 323 323 326 324 322 318 319 319 319 320 319 318 319 320 321 325 326 325 325 323 322 321 319
321 323 321 322 326 326 327 325 325 325 327 326 323 320 318 317 316 317 318 318 318 317 318 320 322 325 327 325 323 322 323 322

GFSFLT2_sfc_thetae_117.txt.gz
Theta_e
352 350 348 344 343 344 343 344 345 345 345 343 339 337 338 337 339 341 340 343 345 343 341 340 339 338 337 336 335 336 340 338
351 351 351 351 350 341 341 341 341 341 342 340 336 336 338 338 340 341 342 343 343 341 339 338 337 336 335 334 334 334 338 339
349 350 351 352 351 347 342 341 340 339 341 337 334 342 338 341 340 340 342 341 340 338 337 335 333 333 334 333 334 340 338 339
347 349 350 351 347 350 348 348 348 347 348 346 347 345 343 341 339 339 340 338 337 336 335 332 334 339 336 332 338 338 336 338
346 349 351 351 348 348 347 347 347 347 347 347 347 343 348 342 343 340 344 339 340 338 333 339 339 338 338 339 337 337 334 333
346 348 349 351 348 347 347 347 346 346 347 349 345 343 343 342 336 335 339 343 340 335 338 340 338 338 338 337 334 334 330 333
345 347 349 349 348 345 346 347 346 347 346 348 345 343 340 339 338 339 339 342 341 335 338 339 338 336 335 333 332 330 330 332
342 346 348 350 344 345 346 346 345 346 345 346 345 343 344 339 341 339 336 341 338 333 333 335 336 334 333 331 330 329 328 329
338 344 348 349 344 343 344 344 344 344 343 346 344 344 343 341 340 338 338 340 334 331 330 330 336 332 330 330 329 329 327 327
334 338 346 349 346 346 343 342 342 343 341 343 344 342 341 342 339 340 339 338 333 329 330 329 327 329 329 328 327 328 326 326
329 340 343 348 347 344 344 343 341 341 341 340 341 341 340 339 339 339 338 337 335 330 328 326 324 326 327 328 329 326 326 324
328 336 342 348 345 344 342 340 337 339 338 338 340 340 339 338 339 338 338 335 332 327 326 326 325 325 324 325 325 326 326 323
329 332 340 343 340 338 335 333 333 334 336 336 338 338 336 337 336 335 331 329 328 328 327 325 323 329 324 323 324 326 328 323
330 333 337 340 337 335 337 337 336 337 335 335 335 334 335 334 334 331 329 328 327 325 326 322 322 328 322 320 315 318 322 322
330 333 335 339 333 335 337 336 334 331 330 332 334 333 331 330 330 330 328 327 325 324 325 322 319 324 327 321 315 312 317 321
332 333 334 337 335 335 336 331 328 331 331 332 332 334 331 329 328 327 327 327 326 324 326 326 323 321 325 325 325 322 315 313
333 333 334 336 336 336 335 334 332 332 331 332 331 332 333 330 327 326 325 325 325 323 324 325 324 325 324 323 323 323 323 318
333 332 333 335 335 336 335 334 332 329 329 329 330 331 333 330 329 326 324 324 323 323 323 324 324 325 326 326 323 320 319 320
326 328 330 331 333 335 335 334 332 330 329 328 329 329 329 329 328 325 323 323 322 322 322 322 322 322 322 323 327 324 324 323
322 325 326 326 330 333 333 333 330 329 328 328 327 328 328 327 326 323 323 322 322 321 321 322 322 322 321 323 325 325 324 323

GFSFLT2_sfc_thetae_120.txt.gz
Theta_e
347 346 346 345 344 344 344 345 345 347 345 341 339 340 339 341 341 339 336 339 342 343 340 340 340 339 338 336 333 336 336 337
348 348 347 347 346 341 341 342 342 342 342 339 336 335 336 339 340 341 340 341 343 340 339 339 338 337 336 334 333 336 335 336
349 348 348 349 348 345 341 342 341 340 341 338 334 336 337 336 336 338 340 340 341 339 337 335 333 334 333 332 333 334 334 335
348 349 348 350 347 346 345 345 345 345 344 338 340 340 337 337 338 338 339 338 338 337 335 333 334 333 333 332 334 335 334 334
346 348 350 349 345 347 344 345 344 344 345 343 343 342 341 339 339 339 337 338 336 335 333 333 335 335 333 332 333 333 333 332
345 347 349 350 346 345 345 342 344 344 343 345 343 341 339 338 338 337 336 336 335 334 332 333 333 333 334 333 332 332 331 330
344 347 348 349 346 344 345 343 344 344 344 344 342 340 338 338 336 335 334 337 335 333 332 332 331 333 334 332 331 331 331 329
344 344 348 349 346 345 343 346 344 346 345 344 343 340 338 336 334 335 336 336 336 334 331 332 331 332 331 330 329 326 329 327
343 344 347 348 345 344 344 345 344 343 343 345 342 341 338 336 335 334 335 336 334 331 330 329 331 331 329 329 326 326 324 326
338 343 345 347 345 342 342 342 342 342 340 342 342 340 339 336 334 333 334 334 332 329 328 326 327 327 325 324 324 324 323 323
332 338 342 345 345 343 342 341 341 341 340 339 341 340 338 336 335 333 334 333 330 328 327 327 325 325 325 324 324 322 320 322
331 336 341 344 346 343 342 341 339 341 340 338 339 339 338 336 334 333 333 331 329 327 326 326 325 324 326 323 324 322 320 319
328 334 339 342 341 339 338 336 336 336 336 337 336 337 336 335 333 332 332 330 329 327 326 323 322 323 321 320 321 321 322 317
328 328 337 339 341 340 338 337 333 333 334 334 334 335 335 333 332 331 331 330 328 327 325 323 322 323 320 317 312 316 319 319
327 328 331 337 340 338 335 333 333 332 333 332 332 333 334 332 332 331 330 329 326 326 325 323 319 321 322 316 310 308 313 318
329 329 330 335 338 334 332 330 329 330 330 330 331 331 331 331 330 330 329 329 326 326 326 323 321 318 321 322 319 316 310 308
329 330 331 336 334 333 332 331 331 330 330 328 329 330 330 329 329 329 328 328 326 325 325 323 322 319 319 319 318 318 316 312
332 331 330 334 333 334 332 332 330 329 329 328 328 329 329 328 327 326 327 326 326 325 325 324 322 321 321 320 318 316 314 314
331 330 329 334 334 333 333 333 333 330 328 328 327 328 328 328 327 326 325 325 325 326 324 324 323 321 322 321 321 319 319 318
325 325 326 332 332 332 333 332 332 330 329 328 327 327 327 329 327 326 325 325 324 323 323 324 324 323 322 322 322 321 321 318

GFSFLT2_sfc_thetae_126.txt.gz
Theta_e
339 341 344 344 343 343 342 342 342 344 343 342 342 341 339 341 340 338 340 339 341 339 341 339 338 337 335 334 334 335 334 335
337 339 341 341 342 340 340 339 340 341 340 339 338 337 337 339 337 338 339 339 340 340 339 338 338 335 333 332 332 334 333 333
336 337 338 337 339 342 340 340 340 339 339 337 334 334 334 336 335 336 338 338 338 340 337 337 335 334 333 332 333 332 332 331
335 336 337 337 341 340 338 341 341 341 337 335 332 330 332 335 336 335 336 336 338 339 338 334 334 334 331 332 332 332 330 330
335 336 337 337 338 339 340 339 340 340 336 332 328 330 330 332 333 335 332 336 335 335 335 332 331 332 331 330 331 331 330 331
336 337 338 338 338 336 338 338 338 338 337 332 330 329 327 328 330 329 331 333 334 333 332 329 330 331 331 331 332 330 329 330
337 338 338 340 338 336 336 337 337 338 335 334 332 331 329 329 331 330 332 332 332 330 329 328 329 330 330 331 331 330 329 330
339 339 340 340 338 337 336 337 337 336 337 336 335 334 331 330 330 330 330 331 330 328 326 326 326 329 329 330 330 329 329 329
337 338 340 340 338 338 337 337 337 336 337 337 337 335 332 331 330 329 330 330 328 325 323 325 326 329 329 329 330 328 328 327
338 340 340 340 339 339 338 337 337 337 337 338 336 335 334 331 330 329 330 330 329 326 324 324 325 327 326 325 327 327 327 326
336 338 339 340 339 338 338 338 335 336 338 337 336 335 334 332 330 330 330 329 328 326 322 324 323 325 325 324 323 325 325 325
335 337 339 340 340 337 336 336 335 336 336 337 335 334 333 331 329 329 330 328 327 325 323 320 322 324 326 324 322 322 324 323
332 334 337 339 337 334 333 332 333 334 334 335 335 335 333 330 328 327 329 327 325 324 321 321 318 323 321 320 320 320 320 321
327 334 336 339 338 337 336 335 332 334 334 333 334 334 334 333 331 329 328 327 324 324 322 318 319 324 318 319 314 315 316 319
319 332 336 339 338 336 330 328 327 329 332 333 334 335 335 334 332 329 329 329 326 324 322 321 318 321 321 318 311 310 312 316
317 331 335 339 338 335 332 331 329 331 332 333 332 334 333 333 331 330 330 329 327 325 324 323 322 319 318 321 317 316 310 307
324 331 335 337 337 335 333 331 331 329 330 328 331 331 332 331 330 329 327 329 328 326 324 323 323 320 319 320 317 316 317 311
318 329 333 335 336 335 333 330 327 326 327 327 328 329 329 330 329 329 328 328 328 327 325 324 323 322 322 321 319 316 313 312
321 324 325 330 333 333 332 330 328 327 327 326 326 326 326 327 328 327 327 328 327 327 325 325 323 322 321 321 322 320 318 316
317 320 323 325 325 328 329 328 328 327 327 326 325 326 326 327 326 327 326 326 326 326 325 325 324 323 320 321 322 321 320 317

GFSFLT2_sfc_thetae_129.txt.gz
Theta_e
339 341 343 343 342 343 342 343 343 344 343 343 342 342 341 341 340 340 341 342 342 343 341 340 340 338 336 335 334 335 333 333
338 339 341 341 341 339 339 339 340 341 341 339 339 338 339 339 337 338 339 340 340 341 340 338 338 335 334 332 333 333 331 332
337 339 339 339 339 340 339 339 340 339 339 338 334 333 334 336 334 337 338 339 339 340 338 336 335 333 333 333 333 331 331 330
334 337 337 337 341 340 336 338 339 338 337 335 333 329 330 334 333 335 337 337 338 338 336 334 334 331 332 333 331 330 330 330
333 335 336 336 339 340 338 339 341 340 333 332 329 328 329 330 329 330 329 334 334 335 334 332 331 330 331 331 331 331 330 330
332 334 335 335 338 338 338 339 339 340 335 330 328 327 326 326 328 328 327 329 331 333 332 328 329 330 331 331 330 329 329 331
332 334 334 335 336 336 336 337 338 338 337 330 328 327 326 326 327 327 328 333 333 331 329 327 327 328 329 331 331 330 328 329
335 333 334 336 333 334 335 336 337 337 337 334 329 328 327 327 327 326 328 331 331 329 327 326 326 328 327 329 331 330 330 329
336 335 335 336 334 333 334 335 336 335 335 336 332 331 328 327 328 328 327 330 329 325 323 323 324 326 326 328 330 329 329 329
336 339 337 336 336 335 334 335 335 335 335 335 336 333 330 328 328 328 327 327 326 322 321 321 322 324 324 325 328 328 328 328
334 337 337 337 336 337 336 335 334 335 336 335 335 334 332 329 329 327 328 327 325 323 319 321 320 321 322 323 325 326 326 328
333 336 338 338 337 336 336 334 334 336 336 336 335 335 333 330 328 327 328 327 325 322 320 319 320 321 324 322 321 323 325 325
326 333 336 337 337 334 333 333 333 334 336 336 335 334 332 330 328 327 328 327 326 324 318 319 317 321 322 319 319 320 321 323
315 329 335 337 337 336 335 335 334 334 336 336 335 333 332 331 328 327 329 326 323 322 319 316 319 324 318 319 313 315 318 321
312 325 332 337 338 337 332 329 330 332 332 334 335 333 332 332 329 329 328 327 325 323 323 321 318 322 322 318 312 310 313 316
307 321 331 336 337 335 332 331 329 332 333 334 334 335 333 333 331 330 329 329 327 325 325 324 323 319 321 321 318 314 309 308
306 316 329 334 337 335 333 332 332 331 334 333 332 334 334 334 332 330 329 329 328 326 324 323 323 322 321 320 315 316 315 311
317 317 329 334 336 335 333 332 330 329 331 331 331 331 332 331 331 330 330 329 328 326 326 324 322 323 322 321 320 316 312 309
317 326 329 334 335 334 333 333 330 329 329 328 329 328 329 329 330 329 328 329 329 327 326 324 324 322 321 321 321 321 318 316
319 323 324 332 334 333 333 329 329 328 328 329 328 328 328 329 329 329 328 328 328 327 326 325 324 323 322 322 322 322 321 318